Fairbanks Eiels, AK

7:49 AM AKST on January 22, 2018 (GMT -0900)
Eielson Air Force Base

Weather History for PAEI - November, 2011

Change the Weather History Date:

Saturday, November 26, 2011

  Actual Average Record
Temperature  
Mean Temperature -17 °F -  
Max Temperature -8 °F 5 °F 46 °F (2002)
Min Temperature -26 °F -10 °F -37 °F (1961)
Degree Days  
Heating Degree Days 82    
Moisture  
Dew Point -27 °F    
Average Humidity 73    
Maximum Humidity 85    
Minimum Humidity 69    
Precipitation  
Precipitation 0.00 in - - ()
Sea Level Pressure  
Sea Level Pressure 29.82 in    
Wind  
Wind Speed 2 mph (North)    
Max Wind Speed 6 mph    
Max Gust Speed -    
Visibility 8 miles    
Events      
Averages and records for this station are not official NWS values.
T = Trace of Precipitation, MM = Missing Value Source: NWS Daily Summary

Daily Weather History Graph

Daily Weather History Graph

Search for Another Location

Airport or City:

Trip Planner

Search our weather history database for the weather conditions in past years. The results will help you decide how hot, cold, wet, or windy it might be!

Date:

Astronomy

Nov. 26, 2011 Rise Set
Actual Time 9:58 AM AKST 3:12 PM AKST
Civil Twilight 8:48 AM AKST 4:22 PM AKST
Nautical Twilight 7:42 AM AKST 5:27 PM AKST
Astronomical Twilight 6:43 AM AKST 6:26 PM AKST
Moon 12:14 PM AKST (11/26) 4:19 PM AKST (11/26)
Length of Visible Light 7h 33m
Length of Day
5h 14m
Waxing Crescent, 4% of the Moon is Illuminated
Nov 26
Waxing Crescent
Dec 2
First Quarter
Dec 10
Full
Dec 17
Last Quarter
Dec 24
New

Hourly Weather History & Observations

Time (AKST) Temp. Windchill Dew Point Humidity Pressure Visibility Wind Dir Wind Speed Gust Speed Precip Events Conditions
12:55 AM -8.1 °F - -13.4 °F 78% 29.85 in 10.0 mi Calm Calm - N/A   Clear
1:55 AM -10.5 °F - -16.1 °F 76% 29.85 in 10.0 mi Calm Calm - N/A   Clear
2:27 AM -13.0 °F - -18.4 °F 77% 29.85 in 10.0 mi Calm Calm - N/A   Partly Cloudy
2:55 AM -14.1 °F - -19.7 °F 76% 29.85 in 10.0 mi Calm Calm - N/A   Partly Cloudy
3:55 AM -13.2 °F -22.9 °F -18.8 °F 76% 29.86 in 10.0 mi Variable 3.5 mph - N/A   Partly Cloudy
4:55 AM -17.9 °F -30.7 °F -23.8 °F 74% 29.86 in 10.0 mi Variable 4.6 mph - N/A   Clear
5:55 AM -19.8 °F -33.1 °F -26.0 °F 73% 29.86 in 10.0 mi South 4.6 mph - N/A   Clear
6:55 AM -21.6 °F -35.2 °F -28.1 °F 72% 29.87 in 10.0 mi Variable 4.6 mph - N/A   Clear
7:55 AM -22.9 °F -36.6 °F -29.6 °F 71% 29.87 in 10.0 mi Variable 4.6 mph - N/A   Clear
8:55 AM -22.5 °F - -28.8 °F 72% 29.87 in 10.0 mi Calm Calm - N/A   Clear
9:55 AM -23.8 °F - -29.9 °F 73% 29.88 in 10.0 mi Calm Calm - N/A   Clear
10:55 AM -24.7 °F - -29.9 °F 76% 29.88 in 10.0 mi Calm Calm - N/A   Clear
11:55 AM -24.9 °F - -29.9 °F 77% 29.88 in 10.0 mi Calm Calm - N/A   Clear
12:55 PM -26.9 °F - -29.9 °F 85% 29.86 in 10.0 mi Calm Calm - N/A   Clear
1:19 PM -25.6 °F - -29.2 °F 83% 29.86 in 10.0 mi Calm Calm - N/A   Mostly Cloudy
1:21 PM -25.6 °F - -29.2 °F 83% 29.86 in 10.0 mi Calm Calm - N/A   Scattered Clouds
1:55 PM -24.3 °F - -29.9 °F 75% 29.85 in 10.0 mi Calm Calm - N/A   Clear
2:55 PM -23.3 °F - -29.7 °F 72% 29.84 in 5.0 mi Calm Calm - N/A   Haze
3:22 PM -22.0 °F - -29.2 °F 69% 29.84 in 8.0 mi Calm Calm - N/A   Overcast
3:30 PM -22.0 °F - -29.2 °F 69% 29.84 in 6.0 mi Calm Calm - N/A   Haze
3:55 PM -22.9 °F - -29.4 °F 72% 29.83 in 5.0 mi Calm Calm - N/A   Haze
3:56 PM -22.0 °F - -29.2 °F 69% 29.83 in 5.0 mi Calm Calm - N/A   Haze
4:01 PM -22.0 °F - -29.2 °F 69% 29.83 in 6.0 mi Calm Calm - N/A   Haze
4:07 PM -22.0 °F - -29.2 °F 69% 29.83 in 8.0 mi Calm Calm - N/A   Overcast
4:12 PM -22.0 °F - -29.2 °F 69% 29.83 in 8.0 mi Calm Calm - N/A   Overcast
4:26 PM -22.0 °F - -29.2 °F 69% 29.83 in 10.0 mi Calm Calm - N/A   Overcast
4:28 PM -22.0 °F - -29.2 °F 69% 29.83 in 10.0 mi Calm Calm - N/A   Overcast
4:34 PM -22.0 °F - -29.2 °F 69% 29.83 in 10.0 mi Calm Calm - N/A   Overcast
4:55 PM -21.5 °F - -27.8 °F 73% 29.83 in 10.0 mi Calm Calm - N/A   Overcast
5:55 PM -19.7 °F - -25.8 °F 73% 29.82 in 10.0 mi Calm Calm - N/A   Overcast
6:55 PM -19.1 °F -29.7 °F -25.4 °F 73% 29.81 in 10.0 mi North 3.5 mph - N/A   Overcast
7:55 PM -19.1 °F -32.2 °F -25.4 °F 73% 29.79 in 10.0 mi North 4.6 mph - N/A   Overcast
8:17 PM -18.4 °F -33.4 °F -25.6 °F 70% 29.79 in 9.0 mi North 5.8 mph - N/A   Overcast
8:35 PM -20.2 °F -35.5 °F -25.6 °F 76% 29.78 in 5.0 mi North 5.8 mph - N/A   Haze
8:42 PM -20.2 °F -33.5 °F -25.6 °F 76% 29.78 in 5.0 mi NNW 4.6 mph - N/A   Haze
8:55 PM -19.5 °F -30.1 °F -25.6 °F 73% 29.78 in 6.0 mi North 3.5 mph - N/A   Haze
8:57 PM -20.2 °F -33.5 °F -25.6 °F 76% 29.78 in 6.0 mi North 4.6 mph - N/A   Haze
9:06 PM -20.2 °F -30.9 °F -25.6 °F 76% 29.78 in 4.0 mi North 3.5 mph - N/A   Haze
9:09 PM -20.2 °F -33.5 °F -25.6 °F 76% 29.78 in 4.0 mi North 4.6 mph - N/A   Haze
9:11 PM -20.2 °F -33.5 °F -25.6 °F 76% 29.78 in 4.0 mi North 4.6 mph - N/A   Haze
9:23 PM -20.2 °F -33.5 °F -27.4 °F 69% 29.78 in 4.0 mi North 4.6 mph - N/A   Haze
9:35 PM -20.2 °F -33.5 °F -27.4 °F 69% 29.78 in 2.5 mi North 4.6 mph - N/A   Haze
9:38 PM -20.2 °F -33.5 °F -27.4 °F 69% 29.78 in 2.5 mi North 4.6 mph - N/A   Haze
9:45 PM -20.2 °F -33.5 °F -27.4 °F 69% 29.77 in 2.5 mi North 4.6 mph - N/A   Haze
9:48 PM -20.2 °F -33.5 °F -27.4 °F 69% 29.77 in 3.0 mi North 4.6 mph - N/A   Haze
9:55 PM -20.6 °F -31.3 °F -26.9 °F 73% 29.77 in 4.0 mi North 3.5 mph - N/A   Haze
10:02 PM -20.2 °F -30.9 °F -27.4 °F 69% 29.77 in 4.0 mi North 3.5 mph - N/A   Haze
10:16 PM -20.2 °F - -27.4 °F 69% 29.77 in 4.0 mi Calm Calm - N/A   Haze
10:33 PM -20.2 °F -35.5 °F -27.4 °F 69% 29.77 in 4.0 mi NNW 5.8 mph - N/A   Haze
10:52 PM -22.0 °F - -27.4 °F 76% 29.76 in 9.0 mi Calm Calm - N/A   Overcast
10:54 PM -22.0 °F -33.0 °F -29.2 °F 69% 29.76 in 9.0 mi North 3.5 mph - N/A   Overcast
11:35 PM -23.8 °F -39.8 °F -29.2 °F 76% 29.75 in 10.0 mi North 5.8 mph - N/A   Overcast
11:46 PM -23.8 °F -37.7 °F -29.2 °F 76% 29.75 in 10.0 mi North 4.6 mph - N/A   Overcast
11:55 PM -23.6 °F - -29.9 °F 72% 29.75 in 10.0 mi Calm Calm - N/A   Mostly Cloudy